Regional Weather Roundup
Issued by NWS Upton, NY

Current Version | Previous Version | Text Only | Print | Product List | Glossary On
Versions: 1 2 3 4 5 6 7 8 9 10 11 12 13 14 15 16 17 18 19 20 21 22 23 24 25 26 27
000
ASUS41 KOKX 011708
RWROKX

REGIONAL WEATHER ROUNDUP
NATIONAL WEATHER SERVICE NEW YORK NY
1200 PM EST THU DEC 01 2016

NOTE: "FAIR" INDICATES FEW OR NO CLOUDS BELOW 12,000 FEET WITH NO
SIGNIFICANT WEATHER AND/OR OBSTRUCTIONS TO VISIBILITY.

NYZ071-072-176-178-NJZ106-104-011800-
NEW YORK CITY METRO AREA

CITY           SKY/WX    TMP DP  RH WIND       PRES   REMARKS
Central Park   SUNNY     53  35  50 MISG      29.66F
Wall St Helipt MOSUNNY   57  37  47 W9        29.65S
Bronx Bot Gard   N/A     54  34  47 NW8       29.65F
LaGuardia APRT MOSUNNY   56  36  47 NW17G25   29.63F
Kennedy INTL   MOSUNNY   57  35  43 W15       29.64F
Breezy Point   NOT AVBL
Newark/Liberty MOSUNNY   54  36  50 W16G24    29.65F
Teterboro      MOSUNNY   54  35  48 W16G23    29.63F
$$

NYZ177-179-078>081-011800-
LONG ISLAND NEW YORK

CITY           SKY/WX    TMP DP  RH WIND       PRES   REMARKS
Jones Beach    NOT AVBL
Matinecock PT  NOT AVBL
Farmingdale    SUNNY     56  37  49 W14G22    29.62F
MacArthur/ISP  MOSUNNY   57  39  51 W13       29.60F
Shirley        SUNNY     56  40  55 NW17G24   29.61F
Westhampton    MOSUNNY   56  38  50 W20G25    29.61S
Southampton      N/A     57  43  58 W12       29.55F
Bridgehampton    N/A     55  43  62 SW6       29.58F
East Hampton     N/A     55  40  57 W15G24    29.58S
Montauk          N/A     55  44  66 W14G23    29.58F
$$

NYZ052-065-067-011800-
HUDSON VALLEY

CITY           SKY/WX    TMP DP  RH WIND       PRES   REMARKS
White Plains   MOSUNNY   54  38  54 NW16      29.61S
Newburgh       PTSUNNY   48  39  71 NW14G23   29.63F
Montgomery     CLOUDY    50  35  56 W9G18     29.62F
Poughkeepsie   PTSUNNY   50  33  52 W17G25    29.61S
Albany         CLOUDY    46  35  65 NW8       29.60S
$$

NJZ001-105-106-008-010-013-015-019>022-104-011800-
NEW JERSEY

CITY           SKY/WX    TMP DP  RH WIND       PRES   REMARKS
Newark/Liberty MOSUNNY   54  36  50 W16G24    29.65F
Teterboro      MOSUNNY   54  35  48 W16G23    29.63F
Caldwell       MOSUNNY   52  34  50 W16G24    29.65F
Somerville     PTSUNNY   52  34  50 W14G22    29.67S
Linden           N/A     54  35  49 W15G23    29.66S
Sussex         PTSUNNY   48  33  56 W8G21     29.65F
Andover          N/A     50  34  54 NW10      29.66F
Trenton        PTSUNNY   51  34  52 NW16G24   29.70S
Millville      MOSUNNY   57  40  52 W16G24    29.72F
Atlantic City  SUNNY     57  36  45 W21G28    29.70F
Wrightstown    MOSUNNY   54  36  51 W15       29.67F
Toms River     SUNNY     54  38  54 W18G26    29.69F
Belmar         SUNNY     54  36  50 W18G24    29.68S
$$

PAZ047>061-062-071-011800-
EASTERN PENNSYLVANIA

CITY           SKY/WX    TMP DP  RH WIND       PRES   REMARKS
Philadelphia   MOSUNNY   53  35  50 NW17      29.72F
Allentown      CLOUDY    48  34  58 W13       29.71S
Scranton       CLOUDY    44  33  65 SW13      29.67F
$$

CTZ002-004>006-009-010-012-RIZ004-006-007-MAZ004-011-015-011800-
SOUTHERN NEW ENGLAND
 IN CT

CITY           SKY/WX    TMP DP  RH WIND       PRES   REMARKS
Bradley INTL   PTSUNNY   54  36  50 W12       29.56F
Hartford       CLOUDY    54  40  59 NW12      29.56S
Danbury        MOSUNNY   51  37  58 W10G21    29.61R
Wtrbury/Oxford MOSUNNY   54  36  50 NW12G20   29.60F
Bridgeport     SUNNY     57  37  47 W15G26    29.59S
Meriden        PTSUNNY   57  38  48 W12       29.57F
New Haven      MOSUNNY   55  37  50 W7G20     29.58F
Chester          N/A     55  39  54 NW8G20    29.56S
Groton         PTSUNNY   60  45  57 SW12      29.55F
Wilimantic     PTSUNNY   55  40  56 NW12G17   29.55F

 IN RI

CITY           SKY/WX    TMP DP  RH WIND       PRES   REMARKS
Providence     MOSUNNY   58  40  51 NW14      29.53F
Block Island   SUNNY     55  46  71 W16G28    29.56S
Westerly       MOSUNNY   58  42  55 W9G17     29.55F
 IN MA

CITY           SKY/WX    TMP DP  RH WIND       PRES   REMARKS
Boston         MOSUNNY   57  41  55 W20G28    29.49F
Worcester      CLOUDY    49  38  65 W14G22    29.51F
Westfield      MOSUNNY   55  37  50 NW17G24   29.55S
Provincetown   SUNNY     55  47  74 W13       29.50R
Nantucket      SUNNY     56  47  71 W18G28    29.52S
$$

ANZ330-335-338-340-345-350-353-355-011800-
COASTAL MARINE OBSERVATIONS


STATION/POSITION TIME  SKY/WX   TEMP    WIND        PRES    VSBY  WAVE
                                AIR SEA DIR/SP/G                  HT/PER
                 (UTC)          (F)     (DEG/KT/KT) (MB)    (MI)  (FT/S)
NY HARB ENTRANCE 1550            53 54  280/ 21/ 25 1003.7          5/ 8
20 S FIRE ISLAND 1550            54 55  280/ 21/ 25 1003.3          7/ 8
GREAT SOUTH BAY  1630            52 46                N/A
23 SSW MONTAUK P 1650            55 56  270/ 19/ 25 1002.0          7/ 8
15 E BARNEGAT LI 1630               54                N/A           6/ 9
HUDSON CANYON    1550            56 60              1004.0          9/ 8
KINGS POINT      1642            53 51              1003.1
EXECUTION ROCKS  1645            55     270/ 14/ 19   N/A
CENTRAL LI SOUND 1615            53 52  270/ 19/ 23   N/A           2/ 4
EASTERN LI SOUND NOT AVBL
ROBBINS REEF     1642            52     270/ 20/ 23 1003.8
$$


>>>>>>>>>>>>>>>>>>>>>>>>>>>> KEY <<<<<<<<<<<<<<<<<<<<<<<<<<<
>                                                          <
>     SKY/WX - Sky Condition/Present Weather               <
>     TMP    - Temperature in Fahrenheit                   <
>     DP     - Dew Point in Fahrenheit                     <
>     RH     - Relative Humidity in Percent                <
>     WIND   - Direction (from) and Speed in MPH           <
>     PRES   - Mean Sea Level Pressure (inches of Hg)      <
>     WCI    - Wind Chill Index                            <
>     VSB    - VISIBILITY IN MILES                         <
>     HX     - HEAT INDEX                                  <
>     TC     - TEMPERATURE IN CELSIUS                      <
>     VRB    - VARIABLE WIND DIRECTION                     <
>                                                          <
>>>>>>>>>>>>>>>>>>>>>>>>>>>> KEY <<<<<<<<<<<<<<<<<<<<<<<<<<<




USA.gov is the U.S. government's official web portal to all federal, state and local government web resources and services.